"read_dt","SO2 (ppb)","flags","PMT voltage (V)","lamp voltage (V)","lamp intensity (Hz)","internal temp (C)","react chamber temp (C)","sample flow (l/min)","pres (mmHg)","SO2 bkg (ppb)","SO2 coefficient"
2014-03-31 00:00:00,4094E-2,5C000491,-0725,1373,5589,011.2,044.9,0.190,765.6,01.16,0.508
2014-03-31 00:01:00,4146E-2,5C000491,-0725,1373,5473,011.2,044.9,0.190,765.6,01.16,0.508
2014-03-31 00:02:00,4157E-2,5C000491,-0725,1373,5640,011.2,044.9,0.190,765.6,01.16,0.508
2014-03-31 00:03:00,4205E-2,5C000491,-0725,1373,5630,011.2,044.9,0.190,765.6,01.16,0.508
2014-03-31 00:04:00,4172E-2,5C000491,-0725,1373,5646,011.2,044.9,0.190,765.6,01.16,0.508
2014-03-31 00:05:00,4200E-2,5C000491,-0725,1373,5493,011.2,044.9,0.190,765.6,01.16,0.508
2014-03-31 00:06:00,4181E-2,5C000491,-0725,1373,5447,011.2,044.8,0.190,765.6,01.16,0.508
2014-03-31 00:07:00,4131E-2,5C000491,-0725,1373,5554,011.2,044.9,0.190,765.6,01.16,0.508
2014-03-31 00:08:00,4226E-2,5C000491,-0725,1373,5539,011.3,044.9,0.190,765.6,01.16,0.508
2014-03-31 00:09:00,4208E-2,5C000491,-0725,1373,5329,011.3,044.9,0.190,765.6,01.16,0.508
2014-03-31 00:10:00,4169E-2,5C000491,-0725,1373,5460,011.3,044.9,0.190,765.6,01.16,0.508
2014-03-31 00:11:00,4224E-2,5C000491,-0725,1373,5270,011.3,044.8,0.190,765.6,01.16,0.508
2014-03-31 00:12:00,4219E-2,5C000491,-0725,1373,5433,011.3,044.9,0.190,765.6,01.16,0.508
2014-03-31 00:13:00,4250E-2,5C000491,-0725,1373,5390,011.3,044.9,0.190,765.6,01.16,0.508
2014-03-31 00:14:00,4259E-2,5C000491,-0725,1373,5444,011.3,044.8,0.190,765.6,01.16,0.508
2014-03-31 00:15:00,4245E-2,5C000491,-0725,1373,5304,011.3,044.9,0.190,765.6,01.16,0.508
2014-03-31 00:16:00,4310E-2,5C000491,-0725,1373,5358,011.3,044.9,0.190,765.6,01.16,0.508
2014-03-31 00:17:00,4302E-2,5C000491,-0725,1373,5345,011.3,044.9,0.190,765.6,01.16,0.508
2014-03-31 00:18:00,4290E-2,5C000491,-0725,1373,5426,011.3,044.9,0.190,765.6,01.16,0.508
2014-03-31 00:19:00,4320E-2,5C000491,-0725,1373,5296,011.3,044.9,0.190,765.6,01.16,0.508
2014-03-31 00:20:00,4306E-2,5C000491,-0725,1373,5392,011.3,044.9,0.190,765.6,01.16,0.508
2014-03-31 00:21:00,4374E-2,5C000491,-0725,1373,5290,011.3,044.9,0.190,765.6,01.16,0.508
2014-03-31 00:22:00,4361E-2,5C000491,-0725,1373,5259,011.4,044.9,0.190,765.6,01.16,0.508
2014-03-31 00:23:00,4329E-2,5C000491,-0725,1373,5326,011.3,044.9,0.190,765.6,01.16,0.508
2014-03-31 00:24:00,4379E-2,5C000491,-0725,1373,5229,011.4,044.8,0.190,765.7,01.16,0.508
2014-03-31 00:25:00,4384E-2,5C000491,-0725,1373,5298,011.4,044.9,0.190,765.7,01.16,0.508
2014-03-31 00:26:00,4308E-2,5C000491,-0725,1373,5293,011.4,044.9,0.190,765.7,01.16,0.508
2014-03-31 00:27:00,4428E-2,5C000491,-0725,1373,5391,011.4,044.9,0.190,765.7,01.16,0.508
2014-03-31 00:28:00,4330E-2,5C000491,-0725,1373,5282,011.4,044.9,0.190,765.7,01.16,0.508
2014-03-31 00:29:00,4381E-2,5C000491,-0725,1373,5213,011.4,044.9,0.190,765.7,01.16,0.508
2014-03-31 00:30:00,4399E-2,5C000491,-0725,1373,5251,011.4,044.9,0.190,765.7,01.16,0.508
2014-03-31 00:31:00,4452E-2,5C000491,-0725,1373,5176,011.4,044.9,0.190,765.7,01.16,0.508
2014-03-31 00:32:00,4400E-2,5C000491,-0725,1373,5133,011.4,044.9,0.190,765.7,01.16,0.508
2014-03-31 00:33:00,4419E-2,5C000491,-0725,1373,5306,011.4,044.9,0.190,765.7,01.16,0.508
2014-03-31 00:34:00,4482E-2,5C000491,-0725,1373,5240,011.4,044.9,0.190,765.7,01.16,0.508
2014-03-31 00:35:00,4487E-2,5C000491,-0725,1373,5290,011.4,044.9,0.190,765.7,01.16,0.508
2014-03-31 00:36:00,4531E-2,5C000491,-0725,1373,5229,011.5,044.9,0.190,765.7,01.16,0.508
2014-03-31 00:37:00,4519E-2,5C000491,-0725,1373,5245,011.5,044.9,0.190,765.7,01.16,0.508
2014-03-31 00:38:00,4544E-2,5C000491,-0725,1373,5077,011.5,044.9,0.190,765.7,01.16,0.508
2014-03-31 00:39:00,4493E-2,5C000491,-0725,1373,5173,011.5,044.9,0.190,765.7,01.16,0.508
2014-03-31 00:40:00,4551E-2,5C000491,-0725,1373,5139,011.5,044.9,0.190,765.7,01.16,0.508
2014-03-31 00:41:00,4512E-2,5C000491,-0725,1373,5193,011.5,044.9,0.190,765.7,01.16,0.508
2014-03-31 00:42:00,4571E-2,5C000491,-0725,1373,5222,011.5,044.9,0.190,765.8,01.16,0.508
2014-03-31 00:43:00,4579E-2,5C000491,-0725,1373,5116,011.5,044.8,0.190,765.8,01.16,0.508
2014-03-31 00:44:00,4585E-2,5C000491,-0725,1373,5074,011.5,044.9,0.190,765.8,01.16,0.508
2014-03-31 00:45:00,4537E-2,5C000491,-0725,1373,5163,011.5,044.9,0.190,765.8,01.16,0.508
2014-03-31 00:46:00,4595E-2,5C000491,-0725,1373,5300,011.5,044.8,0.190,765.8,01.16,0.508
2014-03-31 00:47:00,4591E-2,5C000491,-0725,1373,5170,011.5,044.8,0.190,765.8,01.16,0.508
2014-03-31 00:48:00,4594E-2,5C000491,-0725,1373,5198,011.5,044.9,0.190,765.8,01.16,0.508
2014-03-31 00:49:00,4571E-2,5C000491,-0725,1373,5201,011.6,044.9,0.190,765.8,01.16,0.508
2014-03-31 00:50:00,4582E-2,5C000491,-0725,1373,5010,011.6,044.9,0.190,765.8,01.16,0.508
2014-03-31 00:51:00,3981E-2,5C000411,-0725,1163,9841,011.6,044.9,0.190,765.8,01.16,0.508
2014-03-31 00:52:00,3722E-2,5C000411,-0725,1118,9350,011.6,044.8,0.190,765.9,01.15,0.508
2014-03-31 00:53:00,3817E-2,5C000411,-0725,1127,9244,011.6,044.8,0.190,765.9,01.15,0.508
2014-03-31 00:54:00,3881E-2,5C000411,-0725,1136,9089,011.6,044.9,0.190,765.9,01.15,0.508
2014-03-31 00:55:00,3890E-2,5C000411,-0725,1147,8884,011.6,044.9,0.190,765.9,01.15,0.508
2014-03-31 00:56:00,3895E-2,5C000411,-0725,1160,8797,011.6,044.9,0.190,765.9,01.15,0.508
2014-03-31 00:57:00,3877E-2,5C000411,-0725,1171,8757,011.7,044.9,0.190,765.9,01.15,0.508
2014-03-31 00:58:00,3890E-2,5C000411,-0725,1183,8566,011.7,044.9,0.189,765.9,01.15,0.508
2014-03-31 00:59:00,3888E-2,5C000411,-0725,1189,8505,011.7,044.9,0.189,765.9,01.15,0.508
2014-03-31 01:00:00,3939E-2,5C000411,-0725,1199,8484,011.7,044.9,0.189,765.9,01.15,0.508
2014-03-31 01:01:00,3962E-2,5C000491,-0725,1207,8427,011.7,044.9,0.189,765.9,01.15,0.508
2014-03-31 01:02:00,3987E-2,5C000491,-0725,1217,8299,011.7,044.9,0.189,765.9,01.15,0.508
2014-03-31 01:03:00,3946E-2,5C000491,-0725,1227,8300,011.7,044.9,0.189,765.9,01.15,0.508
2014-03-31 01:04:00,4023E-2,5C000491,-0725,1234,8198,011.7,044.9,0.189,765.9,01.15,0.508
2014-03-31 01:05:00,4050E-2,5C000491,-0725,1240,8210,011.7,044.9,0.189,765.9,01.15,0.508
2014-03-31 01:06:00,4075E-2,5C000491,-0725,1245,8081,011.7,044.9,0.189,765.9,01.15,0.508
2014-03-31 01:07:00,4033E-2,5C000491,-0725,1251,7972,011.7,044.9,0.189,765.9,01.15,0.508
2014-03-31 01:08:00,4098E-2,5C000491,-0725,1258,7897,011.7,044.9,0.189,765.9,01.15,0.508
2014-03-31 01:09:00,4089E-2,5C000491,-0725,1262,7776,011.7,044.9,0.189,765.9,01.15,0.508
2014-03-31 01:10:00,4127E-2,5C000491,-0725,1266,7782,011.8,044.9,0.189,765.9,01.15,0.508
2014-03-31 01:11:00,4139E-2,5C000491,-0725,1271,7884,011.8,044.9,0.189,765.9,01.15,0.508
2014-03-31 01:12:00,4067E-2,5C000491,-0725,1274,7775,011.8,044.9,0.189,765.9,01.15,0.508
2014-03-31 01:13:00,4137E-2,5C000491,-0725,1279,7741,011.8,044.9,0.189,765.9,01.15,0.508
2014-03-31 01:14:00,4172E-2,5C000491,-0725,1281,7741,011.8,044.9,0.189,765.9,01.15,0.508
2014-03-31 01:15:00,4207E-2,5C000491,-0725,1285,7702,011.8,044.9,0.189,765.9,01.15,0.508
2014-03-31 01:16:00,4185E-2,5C000491,-0725,1288,7696,011.8,044.9,0.189,765.9,01.15,0.508
2014-03-31 01:17:00,4161E-2,5C000491,-0725,1289,7528,011.8,044.9,0.189,765.9,01.15,0.508
2014-03-31 01:18:00,4247E-2,5C000491,-0725,1293,7613,011.8,044.9,0.189,765.9,01.15,0.508
2014-03-31 01:19:00,4228E-2,5C000491,-0725,1296,7570,011.8,044.9,0.189,765.9,01.15,0.508
2014-03-31 01:20:00,4209E-2,5C000491,-0725,1300,7558,011.9,044.9,0.189,765.9,01.15,0.508
2014-03-31 01:21:00,4213E-2,5C000491,-0725,1303,7550,011.9,044.9,0.189,765.8,01.16,0.508
2014-03-31 01:22:00,4227E-2,5C000491,-0725,1307,7456,011.9,044.9,0.189,765.8,01.16,0.508
2014-03-31 01:23:00,4246E-2,5C000491,-0725,1311,7410,011.9,044.9,0.189,765.8,01.16,0.508
2014-03-31 01:24:00,4238E-2,5C000491,-0725,1313,7473,011.9,044.9,0.189,765.8,01.16,0.508
2014-03-31 01:25:00,4226E-2,5C000491,-0725,1315,7395,011.9,044.9,0.189,765.8,01.16,0.508
2014-03-31 01:26:00,4268E-2,5C000491,-0725,1317,7427,011.9,044.9,0.189,765.8,01.16,0.508
2014-03-31 01:27:00,4330E-2,5C000491,-0725,1318,7331,011.9,044.9,0.189,765.8,01.16,0.508
2014-03-31 01:28:00,4281E-2,5C000491,-0725,1321,7384,011.9,044.9,0.189,765.8,01.16,0.508
2014-03-31 01:29:00,4320E-2,5C000491,-0725,1325,7205,011.9,044.9,0.189,765.9,01.15,0.508
2014-03-31 01:30:00,4300E-2,5C000491,-0725,1329,7354,012.0,044.9,0.189,765.8,01.16,0.508
2014-03-31 01:31:00,4303E-2,5C000491,-0725,1332,7188,012.0,044.9,0.189,765.9,01.15,0.508
2014-03-31 01:32:00,4311E-2,5C000491,-0725,1335,7239,012.0,044.9,0.189,765.8,01.16,0.508
2014-03-31 01:33:00,4377E-2,5C000491,-0725,1338,7135,012.0,044.9,0.189,765.8,01.16,0.508
2014-03-31 01:34:00,4374E-2,5C000491,-0725,1339,7225,012.0,044.9,0.189,765.8,01.16,0.508
2014-03-31 01:35:00,4356E-2,5C000491,-0725,1340,7151,012.0,044.9,0.189,765.8,01.16,0.508
2014-03-31 01:36:00,4357E-2,5C000491,-0725,1342,7091,012.0,044.9,0.189,765.8,01.16,0.508
2014-03-31 01:37:00,4282E-2,5C000491,-0725,1341,7115,012.0,044.9,0.189,765.8,01.16,0.508
2014-03-31 01:38:00,4435E-2,5C000491,-0725,1343,7044,012.0,044.9,0.188,765.9,01.15,0.508
2014-03-31 01:39:00,4397E-2,5C000491,-0725,1346,7152,012.0,044.9,0.189,765.9,01.15,0.508
2014-03-31 01:40:00,4369E-2,5C000491,-0725,1347,7048,012.1,044.9,0.189,765.9,01.15,0.508
2014-03-31 01:41:00,4345E-2,5C000491,-0725,1349,7123,012.1,044.9,0.189,765.9,01.15,0.508
2014-03-31 01:42:00,4355E-2,5C000491,-0725,1353,6930,012.1,044.9,0.188,765.9,01.15,0.508
2014-03-31 01:43:00,4359E-2,5C000491,-0725,1354,6938,012.1,044.9,0.188,765.9,01.15,0.508
2014-03-31 01:44:00,4364E-2,5C000491,-0725,1356,7002,012.1,044.9,0.189,765.9,01.15,0.508
2014-03-31 01:45:00,4313E-2,5C000491,-0725,1358,7027,012.1,044.9,0.188,765.9,01.15,0.508
2014-03-31 01:46:00,4359E-2,5C000491,-0725,1357,6986,012.1,044.9,0.188,765.9,01.15,0.508
2014-03-31 01:47:00,4382E-2,5C000491,-0725,1358,6708,012.1,044.9,0.188,765.9,01.15,0.508
2014-03-31 01:48:00,4423E-2,5C000491,-0725,1360,6799,012.1,044.9,0.188,765.9,01.15,0.508
2014-03-31 01:49:00,4339E-2,5C000491,-0725,1362,6985,012.1,044.9,0.188,765.9,01.15,0.508
2014-03-31 01:50:00,4290E-2,5C000491,-0725,1360,6933,012.2,044.9,0.188,765.9,01.15,0.508
2014-03-31 01:51:00,4341E-2,5C000491,-0725,1362,6910,012.2,044.9,0.188,765.9,01.15,0.508
2014-03-31 01:52:00,4317E-2,5C000491,-0725,1363,6784,012.2,044.9,0.188,766.0,01.15,0.508
2014-03-31 01:53:00,4292E-2,5C000491,-0725,1364,6861,012.2,044.9,0.188,766.0,01.15,0.508
2014-03-31 01:54:00,4266E-2,5C000491,-0725,1365,6837,012.2,044.9,0.188,766.0,01.15,0.508
2014-03-31 01:55:00,4340E-2,5C000491,-0725,1367,6770,012.2,044.9,0.188,766.0,01.15,0.508
2014-03-31 01:56:00,4350E-2,5C000491,-0725,1367,6785,012.2,044.9,0.188,766.0,01.15,0.508
2014-03-31 01:57:00,4385E-2,5C000491,-0725,1368,6697,012.2,044.9,0.188,766.0,01.15,0.508
2014-03-31 01:58:00,4325E-2,5C000491,-0725,1369,6692,012.2,044.9,0.188,766.0,01.15,0.508
2014-03-31 01:59:00,4299E-2,5C000491,-0725,1369,6776,012.2,044.9,0.188,766.0,01.15,0.508
2014-03-31 02:00:00,4339E-2,5C000491,-0725,1369,6767,012.2,044.9,0.188,766.0,01.15,0.508
2014-03-31 02:01:00,4412E-2,5C000491,-0725,1368,6761,012.3,044.9,0.188,766.0,01.15,0.508
2014-03-31 02:02:00,4343E-2,5C000491,-0725,1369,6620,012.3,044.9,0.188,766.0,01.15,0.508
2014-03-31 02:03:00,4345E-2,5C000491,-0725,1369,6731,012.3,044.9,0.188,766.0,01.15,0.508
2014-03-31 02:04:00,4318E-2,5C000491,-0725,1370,6723,012.3,044.9,0.188,766.0,01.15,0.508
2014-03-31 02:05:00,4372E-2,5C000491,-0725,1370,6670,012.3,044.9,0.188,766.0,01.15,0.508
2014-03-31 02:06:00,4360E-2,5C000491,-0725,1370,6756,012.3,044.9,0.188,766.0,01.15,0.508
2014-03-31 02:07:00,4324E-2,5C000491,-0725,1371,6730,012.3,044.9,0.188,766.0,01.15,0.508
2014-03-31 02:08:00,4325E-2,5C000491,-0725,1369,6788,012.3,044.9,0.188,766.0,01.15,0.508
2014-03-31 02:09:00,4325E-2,5C000491,-0725,1368,6724,012.3,044.9,0.188,766.0,01.15,0.508
2014-03-31 02:10:00,4314E-2,5C000491,-0725,1369,6734,012.4,044.9,0.188,766.0,01.15,0.508
2014-03-31 02:11:00,4321E-2,5C000491,-0725,1370,6690,012.3,044.9,0.188,766.0,01.15,0.508
2014-03-31 02:12:00,4386E-2,5C000491,-0725,1371,6700,012.3,044.9,0.188,766.0,01.15,0.508
2014-03-31 02:13:00,4298E-2,5C000491,-0725,1371,6756,012.3,044.9,0.188,766.1,01.15,0.508
2014-03-31 02:14:00,4303E-2,5C000491,-0725,1372,6534,012.4,044.9,0.188,766.1,01.15,0.508
2014-03-31 02:15:00,4351E-2,5C000491,-0725,1372,6565,012.4,044.9,0.188,766.0,01.15,0.508
2014-03-31 02:16:00,4343E-2,5C000491,-0725,1372,6495,012.4,044.9,0.188,766.0,01.15,0.508
2014-03-31 02:17:00,4319E-2,5C000491,-0725,1372,6583,012.4,044.9,0.188,766.0,01.15,0.508
2014-03-31 02:18:00,4322E-2,5C000491,-0725,1372,6545,012.4,044.9,0.188,766.0,01.15,0.508
2014-03-31 02:19:00,4320E-2,5C000491,-0725,1372,6513,012.4,044.9,0.188,766.0,01.15,0.508
2014-03-31 02:20:00,4317E-2,5C000491,-0725,1373,6560,012.4,044.9,0.188,766.0,01.15,0.508
2014-03-31 02:21:00,4296E-2,5C000491,-0725,1373,6476,012.5,044.9,0.188,766.1,01.15,0.508
2014-03-31 02:22:00,4334E-2,5C000491,-0725,1373,6500,012.5,044.9,0.188,766.1,01.15,0.508
2014-03-31 02:23:00,4360E-2,5C000491,-0725,1373,6458,012.5,044.9,0.188,766.1,01.15,0.508
2014-03-31 02:24:00,4299E-2,5C000491,-0725,1373,6400,012.5,044.9,0.187,766.1,01.15,0.508
2014-03-31 02:25:00,4296E-2,5C000491,-0725,1373,6396,012.5,044.9,0.187,766.1,01.15,0.508
2014-03-31 02:26:00,4271E-2,5C000491,-0725,1373,6348,012.5,044.9,0.187,766.1,01.15,0.508
2014-03-31 02:27:00,4271E-2,5C000491,-0725,1373,6374,012.5,044.9,0.187,766.1,01.15,0.508
2014-03-31 02:28:00,4241E-2,5C000491,-0725,1373,6309,012.5,044.9,0.187,766.1,01.15,0.508
2014-03-31 02:29:00,4227E-2,5C000491,-0725,1373,6311,012.5,044.9,0.187,766.1,01.15,0.508
2014-03-31 02:30:00,4219E-2,5C000491,-0725,1373,6397,012.6,044.9,0.187,766.1,01.15,0.508
2014-03-31 02:31:00,4276E-2,5C000491,-0725,1373,6284,012.6,044.9,0.187,766.1,01.15,0.508
2014-03-31 02:32:00,4220E-2,5C000491,-0725,1373,6316,012.6,044.9,0.187,766.1,01.15,0.508
2014-03-31 02:33:00,4299E-2,5C000491,-0725,1373,6255,012.6,044.9,0.187,766.1,01.15,0.508
2014-03-31 02:34:00,4295E-2,5C000491,-0725,1373,6313,012.6,044.9,0.187,766.1,01.15,0.508
2014-03-31 02:35:00,4298E-2,5C000491,-0725,1373,6159,012.6,044.9,0.187,766.2,01.15,0.508
2014-03-31 02:36:00,4263E-2,5C000491,-0725,1373,6265,012.6,044.9,0.187,766.1,01.15,0.508
2014-03-31 02:37:00,4216E-2,5C000491,-0725,1373,6227,012.7,044.9,0.187,766.2,01.15,0.508
2014-03-31 02:38:00,4265E-2,5C000491,-0725,1373,6084,012.7,044.9,0.187,766.2,01.15,0.508
2014-03-31 02:39:00,4286E-2,5C000491,-0725,1373,6198,012.7,044.9,0.187,766.2,01.15,0.508
2014-03-31 02:40:00,4270E-2,5C000491,-0725,1373,6139,012.7,044.9,0.187,766.2,01.15,0.508
2014-03-31 02:41:00,4260E-2,5C000491,-0725,1373,6020,012.7,044.9,0.187,766.2,01.15,0.508
2014-03-31 02:42:00,4248E-2,5C000491,-0725,1373,6098,012.7,044.9,0.187,766.2,01.15,0.508
2014-03-31 02:43:00,4250E-2,5C000491,-0725,1373,6127,012.7,044.9,0.187,766.2,01.15,0.508
2014-03-31 02:44:00,4263E-2,5C000491,-0725,1373,6158,012.7,044.9,0.187,766.2,01.15,0.508
2014-03-31 02:45:00,4290E-2,5C000491,-0725,1373,6030,012.8,044.9,0.187,766.2,01.15,0.508
2014-03-31 02:46:00,4344E-2,5C000491,-0725,1373,5968,012.7,044.9,0.187,766.2,01.15,0.508
2014-03-31 02:47:00,4264E-2,5C000491,-0725,1373,6062,012.8,044.9,0.187,766.2,01.15,0.508
2014-03-31 02:48:00,4295E-2,5C000491,-0725,1373,6116,012.8,044.9,0.187,766.2,01.15,0.508
2014-03-31 02:49:00,4358E-2,5C000491,-0725,1373,5992,012.8,044.9,0.187,766.2,01.15,0.508
2014-03-31 02:50:00,4330E-2,5C000491,-0725,1373,5964,012.8,044.9,0.187,766.2,01.15,0.508
2014-03-31 02:51:00,4313E-2,5C000491,-0725,1373,6141,012.8,044.9,0.187,766.2,01.15,0.508
2014-03-31 02:52:00,4388E-2,5C000491,-0725,1373,6015,012.8,044.9,0.187,766.2,01.15,0.508
2014-03-31 02:53:00,4355E-2,5C000491,-0725,1373,5994,012.8,044.9,0.187,766.2,01.15,0.508
2014-03-31 02:54:00,4349E-2,5C000491,-0725,1373,5984,012.8,044.9,0.187,766.2,01.15,0.508
2014-03-31 02:55:00,4324E-2,5C000491,-0725,1373,5978,012.8,044.9,0.187,766.2,01.15,0.508
2014-03-31 02:56:00,4345E-2,5C000491,-0725,1373,5962,012.9,044.9,0.187,766.2,01.15,0.508
2014-03-31 02:57:00,4394E-2,5C000491,-0725,1373,5956,012.9,044.9,0.187,766.2,01.15,0.508
2014-03-31 02:58:00,4353E-2,5C000491,-0725,1373,5855,012.9,044.9,0.186,766.2,01.15,0.508
2014-03-31 02:59:00,4385E-2,5C000491,-0725,1373,5805,012.9,044.9,0.186,766.2,01.15,0.508
2014-03-31 03:00:00,4340E-2,5C000491,-0725,1373,5838,012.9,044.9,0.186,766.2,01.15,0.508
2014-03-31 03:01:00,4376E-2,5C000491,-0725,1373,5928,012.9,045.0,0.186,766.1,01.15,0.508
2014-03-31 03:02:00,4389E-2,5C000491,-0725,1373,5838,012.9,044.9,0.186,766.2,01.15,0.508
2014-03-31 03:03:00,4367E-2,5C000491,-0725,1373,5845,012.9,044.9,0.186,766.2,01.15,0.508
2014-03-31 03:04:00,4378E-2,5C000491,-0725,1373,5841,012.9,044.9,0.186,766.2,01.15,0.508
2014-03-31 03:05:00,4370E-2,5C000491,-0725,1373,5819,013.0,044.9,0.186,766.2,01.15,0.508
2014-03-31 03:06:00,4304E-2,5C000491,-0725,1373,5800,013.0,045.0,0.186,766.2,01.15,0.508
2014-03-31 03:07:00,4365E-2,5C000491,-0725,1373,5784,013.0,044.9,0.186,766.2,01.15,0.508
2014-03-31 03:08:00,4416E-2,5C000491,-0725,1373,5873,013.0,044.9,0.186,766.2,01.15,0.508
2014-03-31 03:09:00,4295E-2,5C000491,-0725,1373,5689,013.0,044.9,0.186,766.2,01.15,0.508
2014-03-31 03:10:00,4255E-2,5C000491,-0725,1373,5699,013.0,044.9,0.186,766.2,01.15,0.508
2014-03-31 03:11:00,4294E-2,5C000491,-0725,1373,5783,013.1,044.9,0.186,766.2,01.15,0.508
2014-03-31 03:12:00,4223E-2,5C000491,-0725,1373,5724,013.0,044.9,0.186,766.2,01.15,0.508
2014-03-31 03:13:00,4265E-2,5C000491,-0725,1373,5725,013.1,044.9,0.186,766.2,01.15,0.508
2014-03-31 03:14:00,4302E-2,5C000491,-0725,1373,5765,013.1,044.9,0.186,766.2,01.15,0.508
2014-03-31 03:15:00,4276E-2,5C000491,-0725,1373,5709,013.1,044.9,0.186,766.2,01.15,0.508
2014-03-31 03:16:00,4317E-2,5C000491,-0725,1373,5720,013.1,044.9,0.186,766.2,01.15,0.508
2014-03-31 03:17:00,4362E-2,5C000491,-0725,1373,5674,013.1,044.9,0.186,766.2,01.15,0.508
2014-03-31 03:18:00,4348E-2,5C000491,-0725,1373,5787,013.1,044.9,0.186,766.2,01.15,0.508
2014-03-31 03:19:00,4310E-2,5C000491,-0725,1373,5825,013.1,044.9,0.186,766.2,01.15,0.508
2014-03-31 03:20:00,4359E-2,5C000491,-0725,1373,5777,013.1,044.9,0.186,766.2,01.15,0.508
2014-03-31 03:21:00,4353E-2,5C000491,-0725,1373,5717,013.2,044.9,0.186,766.2,01.15,0.508
2014-03-31 03:22:00,4315E-2,5C000491,-0725,1373,5718,013.1,044.9,0.186,766.2,01.15,0.508
2014-03-31 03:23:00,4373E-2,5C000491,-0725,1373,5664,013.2,044.9,0.186,766.2,01.15,0.508
2014-03-31 03:24:00,4325E-2,5C000491,-0725,1373,5655,013.2,044.9,0.186,766.2,01.15,0.508
2014-03-31 03:25:00,4318E-2,5C000491,-0725,1373,5710,013.2,044.9,0.186,766.2,01.15,0.508
2014-03-31 03:26:00,4402E-2,5C000491,-0725,1373,5577,013.2,044.9,0.186,766.2,01.15,0.508
2014-03-31 03:27:00,4382E-2,5C000491,-0725,1373,5642,013.2,044.9,0.186,766.2,01.15,0.508
2014-03-31 03:28:00,4383E-2,5C000491,-0725,1373,5803,013.2,044.9,0.186,766.2,01.15,0.508
2014-03-31 03:29:00,4449E-2,5C000491,-0725,1373,5697,013.2,044.9,0.186,766.2,01.15,0.508
2014-03-31 03:30:00,4382E-2,5C000491,-0725,1373,5674,013.2,044.9,0.186,766.2,01.15,0.508
2014-03-31 03:31:00,4408E-2,5C000491,-0725,1373,5682,013.3,044.9,0.186,766.2,01.15,0.508
2014-03-31 03:32:00,4410E-2,5C000491,-0725,1373,5646,013.3,044.9,0.185,766.2,01.15,0.508
2014-03-31 03:33:00,4476E-2,5C000491,-0725,1373,5635,013.3,044.9,0.186,766.2,01.15,0.508
2014-03-31 03:34:00,4407E-2,5C000491,-0725,1373,5744,013.3,044.9,0.186,766.2,01.15,0.508
2014-03-31 03:35:00,4470E-2,5C000491,-0725,1373,5701,013.3,044.9,0.186,766.2,01.15,0.508
2014-03-31 03:36:00,4413E-2,5C000491,-0725,1373,5703,013.3,044.9,0.186,766.2,01.15,0.508
2014-03-31 03:37:00,4434E-2,5C000491,-0725,1373,5710,013.3,044.9,0.185,766.3,01.15,0.508
2014-03-31 03:38:00,4360E-2,5C000491,-0725,1373,5713,013.4,044.9,0.185,766.3,01.15,0.508
2014-03-31 03:39:00,4424E-2,5C000491,-0725,1373,5606,013.4,044.9,0.186,766.3,01.15,0.508
2014-03-31 03:40:00,4418E-2,5C000491,-0725,1373,5746,013.4,044.9,0.185,766.3,01.15,0.508
2014-03-31 03:41:00,4487E-2,5C000491,-0725,1373,5836,013.4,044.9,0.185,766.3,01.15,0.508
2014-03-31 03:42:00,4443E-2,5C000491,-0725,1373,5668,013.4,044.9,0.185,766.3,01.15,0.508
2014-03-31 03:43:00,4525E-2,5C000491,-0725,1373,5662,013.4,044.9,0.185,766.3,01.15,0.508
2014-03-31 03:44:00,4511E-2,5C000491,-0725,1373,5674,013.4,044.9,0.185,766.3,01.15,0.508
2014-03-31 03:45:00,4486E-2,5C000491,-0725,1373,5762,013.4,044.9,0.185,766.3,01.15,0.508
2014-03-31 03:46:00,4510E-2,5C000491,-0725,1373,5642,013.4,044.9,0.185,766.3,01.15,0.508
2014-03-31 03:47:00,4538E-2,5C000491,-0725,1373,5673,013.4,044.9,0.185,766.3,01.15,0.508
2014-03-31 03:48:00,4530E-2,5C000491,-0725,1373,5746,013.5,044.9,0.185,766.3,01.15,0.508
2014-03-31 03:49:00,4521E-2,5C000491,-0725,1373,5828,013.4,044.9,0.185,766.3,01.15,0.508
2014-03-31 03:50:00,4437E-2,5C000491,-0725,1373,5693,013.5,044.9,0.185,766.3,01.15,0.508
2014-03-31 03:51:00,4509E-2,5C000491,-0725,1373,5716,013.5,044.9,0.185,766.3,01.15,0.508
2014-03-31 03:52:00,4514E-2,5C000491,-0725,1373,5719,013.5,044.9,0.185,766.3,01.15,0.508
2014-03-31 03:53:00,4490E-2,5C000491,-0725,1373,5681,013.5,044.9,0.185,766.3,01.15,0.508
2014-03-31 03:54:00,4529E-2,5C000491,-0725,1373,5702,013.5,044.9,0.185,766.3,01.15,0.508
2014-03-31 03:55:00,4521E-2,5C000491,-0725,1373,5635,013.5,044.9,0.185,766.3,01.15,0.508
2014-03-31 03:56:00,4532E-2,5C000491,-0725,1373,5703,013.5,044.9,0.185,766.3,01.15,0.508
2014-03-31 03:57:00,4497E-2,5C000491,-0725,1373,5639,013.5,044.9,0.185,766.3,01.15,0.508
2014-03-31 03:58:00,4491E-2,5C000491,-0725,1373,5611,013.5,044.9,0.185,766.3,01.15,0.508
2014-03-31 03:59:00,4541E-2,5C000491,-0725,1373,5640,013.5,044.9,0.185,766.3,01.15,0.508
2014-03-31 04:00:00,4571E-2,5C000491,-0725,1373,5483,013.5,044.9,0.185,766.3,01.15,0.508
2014-03-31 04:01:00,4518E-2,5C000491,-0725,1373,5602,013.6,044.9,0.185,766.3,01.15,0.508
2014-03-31 04:02:00,4516E-2,5C000491,-0725,1373,5633,013.6,044.9,0.185,766.3,01.15,0.508
2014-03-31 04:03:00,4520E-2,5C000491,-0725,1373,5593,013.6,044.9,0.185,766.3,01.15,0.508
2014-03-31 04:04:00,4521E-2,5C000491,-0725,1373,5550,013.6,044.9,0.185,766.3,01.15,0.508
2014-03-31 04:05:00,4518E-2,5C000491,-0725,1373,5599,013.6,044.9,0.185,766.3,01.15,0.508
2014-03-31 04:06:00,4502E-2,5C000491,-0725,1373,5616,013.6,044.9,0.185,766.3,01.15,0.508
2014-03-31 04:07:00,4494E-2,5C000491,-0725,1373,5558,013.6,044.9,0.185,766.3,01.15,0.508
2014-03-31 04:08:00,4550E-2,5C000491,-0725,1373,5535,013.6,044.9,0.185,766.3,01.15,0.508
2014-03-31 04:09:00,4631E-2,5C000491,-0725,1373,5690,013.7,045.0,0.185,766.3,01.15,0.508
2014-03-31 04:10:00,4571E-2,5C000491,-0725,1373,5621,013.7,045.0,0.185,766.3,01.15,0.508
2014-03-31 04:11:00,4605E-2,5C000491,-0725,1373,5540,013.7,045.0,0.185,766.3,01.15,0.508
2014-03-31 04:12:00,4654E-2,5C000491,-0725,1373,5638,013.7,044.9,0.185,766.3,01.15,0.508
2014-03-31 04:13:00,4611E-2,5C000491,-0725,1373,5519,013.7,044.9,0.185,766.3,01.15,0.508
2014-03-31 04:14:00,4658E-2,5C000491,-0725,1373,5556,013.7,044.9,0.185,766.3,01.15,0.508
2014-03-31 04:15:00,4599E-2,5C000491,-0725,1373,5565,013.7,044.9,0.185,766.3,01.15,0.508
2014-03-31 04:16:00,4598E-2,5C000491,-0725,1373,5484,013.7,044.9,0.185,766.3,01.15,0.508
2014-03-31 04:17:00,4610E-2,5C000491,-0725,1373,5435,013.7,044.9,0.185,766.3,01.15,0.508
2014-03-31 04:18:00,4595E-2,5C000491,-0725,1373,5514,013.7,044.9,0.185,766.3,01.15,0.508
2014-03-31 04:19:00,4643E-2,5C000491,-0725,1373,5540,013.7,044.9,0.185,766.3,01.15,0.508
2014-03-31 04:20:00,4621E-2,5C000491,-0725,1373,5605,013.8,044.9,0.185,766.3,01.15,0.508
2014-03-31 04:21:00,4652E-2,5C000491,-0725,1373,5499,013.8,045.0,0.184,766.4,01.15,0.508
2014-03-31 04:22:00,4625E-2,5C000491,-0725,1373,5530,013.8,044.9,0.184,766.4,01.15,0.508
2014-03-31 04:23:00,4622E-2,5C000491,-0725,1373,5509,013.8,044.9,0.184,766.4,01.15,0.508